ZHUHAI-1 03A (44534 NORAD) Tracking and Keplerian Element Data

This shows tracking and keplerian element data for the satellite.

Feedback or suggestion? Click here.




ElementValue
Catalog44534
NameZHUHAI-1 03A
Epoch Orbit432
Epoch Day290.82981428
Epoch Year2019
RAAN40.8185
Inclination97.4046
Eccentricity0.0015208
Argument of Perigee205.7261
Mean Anonmoly318.6759
Mean Motion15.17714674
Decay Rate7.46E-06
L11 44534U 19060A 19290.82981428 .00000746 00000-0 40222-4 0 9990
L22 44534 97.4046 40.8185 0015208 205.7261 318.6759 15.17714674 4328

Live tracking and technical data element details for ZHUHAI-1 03A (NORAD 44534). ZHUHAI-1 03A can be tracked NOW for your location showing map with azimuth and elevation plus other details from your city location.

Track the satellite on the map from your city or location and see movement details for azimuth, elevation, latitude, longitude, range, height, and movement on the map or in text.







IsCatalogInMostPopularTable: catalog: 44534, numindb: 15
Update: records affected: 1



GetName: 44534 ZHUHAI-1 03A

Hit Count: updated at: Thu, 05 Dec 2019 16:44:21 GMT